Location: N�nikon
(47.3705°N, 8.6935°E)
Time: 12:45:59
(UTC+00:00)

Daily predictions for brighter satellites

Satellite Brightness Start Highest point End
(mag) Time Altitude Azimuth Time Altitude Azimuth Time Altitude Azimuth
Nadezhda 4 Rocket 4.4 19:26:07 10° SSE 19:31:57 46° E 19:37:50 10° NNE
Landsat 7 4.1 19:33:30 10° SSE 19:38:06 52° ENE 19:42:45 10° N
ISS -3.7 19:35:50 10° WNW 19:39:14 82° NNE 19:42:37 10° ESE
SPOT 3 Rocket 3.9 19:34:48 10° SE 19:39:50 51° ENE 19:44:54 10° N
Cosmos 1825 3.4 19:36:53 10° SSW 19:40:29 45° WNW 19:44:08 10° N
IGS 5A 3.6 19:37:13 10° SSE 19:41:18 60° ENE 19:45:24 10° N
BREEZE-M DEB (TANK) 3.7 19:29:56 10° W 19:43:21 78° NNW 19:47:01 10° ENE
Cosmos 1980 Rocket 2.3 19:38:40 10° NNW 19:44:19 85° WSW 19:49:58 10° SSE
Cosmos 2369 4.1 19:39:01 10° NNW 19:44:37 64° WSW 19:50:11 10° SSE
Cosmos 2058 3.4 19:41:07 10° SSW 19:45:17 66° W 19:49:29 10° N
MetOp-B 4.5 19:41:07 10° SE 19:46:16 51° ENE 19:51:28 10° N
Cosmos 2221 2.9 19:45:12 10° NNW 19:49:29 66° W 19:53:46 10° S
ERBS 4.3 19:48:03 10° W 19:50:31 20° SW 19:52:58 10° S
RESURS DK-1 2.4 19:46:40 10° SSW 19:50:49 90° WNW 19:55:00 10° NNE
USA 245 4.4 19:48:20 10° SE 19:53:02 38° ENE 19:56:53 10° N
COSMOS 2406 4.2 19:48:41 10° SW 19:54:14 54° WNW 19:59:52 10° NNE
BREEZE-M DEB (TANK) 3.5 19:51:06 10° SW 19:54:28 49° SE 20:05:05 10° ENE
Cosmos 2322 Rocket 3.3 19:49:51 10° NNW 19:54:53 32° NE 19:59:52 10° ESE
Cosmos 304 Rocket 4.1 19:54:55 10° NNW 19:59:36 51° ENE 20:03:55 12° SE
BREEZE-M DEB (TANK) 3.4 19:57:10 10° WNW 20:00:14 76° SSW 20:09:16 10° ESE
Cosmos 1933 3.9 19:57:07 10° N 20:01:00 42° ENE 20:04:32 12° SSE
Cosmos 1538 Rocket 4.0 19:56:28 10° S 20:01:37 65° ESE 20:06:45 10° NNE
Resurs 01 Rocket 1.7 19:59:30 10° SSE 20:03:57 81° WSW 20:08:26 10° NNW
ERS-2 2.3 20:01:51 10° NNE 20:05:29 76° WNW 20:09:07 10° SSW
Cosmos 2151 3.1 20:01:55 10° S 20:06:03 53° E 20:10:13 10° NNE
Cosmos 2098 Rocket 2.4 20:04:14 10° S 20:07:20 87° WNW 20:11:00 10° N
Gbstr 26 Del rocket 2.8 20:05:38 10° WNW 20:09:21 73° NNE 20:12:56 12° ESE
Meteor 2-3 Rocket 4.0 20:05:48 10° SSE 20:11:13 51° E 20:16:45 10° NNE
CARTOSAT-1 4.1 20:09:29 13° SE 20:13:01 44° ENE 20:17:08 10° N
Cosmos 2219 Rocket 4.3 20:12:35 10° N 20:15:52 15° NE 20:19:08 10° ENE
Ariane Rocket 4.1 20:13:38 10° S 20:18:27 43° W 20:23:18 10° NNW
SL-16 R/B 2.4 20:18:01 10° NNW 20:23:40 61° ENE 20:28:03 17° SE
Cosmos 1782 3.2 20:23:33 10° N 20:27:29 49° ENE 20:30:03 19° SE
Cosmos 371 Rocket 3.9 20:23:34 10° NNW 20:28:14 52° WSW 20:32:51 10° S
ARIANE 5 R/B 2.9 20:26:51 17° SE 20:30:07 55° ENE 20:34:28 10° N
Cosmos 1271 Rocket 2.7 20:30:04 10° N 20:34:05 81° E 20:36:55 19° SSE
SPOT 1/Viking Rocket 3.8 20:31:18 11° S 20:36:17 72° WSW 20:41:32 10° NNW
USA 276 2.0 20:33:51 10° WNW 20:37:00 75° SSW 20:38:32 27° ESE
BREEZE-M DEB (TANK) 2.9 20:35:00 10° WNW 20:38:04 56° SSW 20:43:14 18° SE
Cosmos 2195 Rocket 4.4 20:32:15 10° S 20:38:21 81° E 20:44:30 10° N
Cosmos 1766 Rocket 3.9 20:37:42 19° SSE 20:40:28 45° E 20:44:40 10° NNE
Cosmos 1151 Rocket 3.2 20:36:48 10° N 20:41:06 56° ENE 20:43:40 23° SSE
ATLAS 5 CENTAUR R/B 4.1 20:38:27 10° NNW 20:42:18 21° NNE 20:46:39 10° ENE
Cosmos 1328 Rocket 4.0 20:41:00 10° N 20:45:19 48° ENE 20:47:39 24° SE
ATLAS 2AS CENTAUR R/B 4.1 20:38:04 10° WSW 20:45:39 48° NW 20:53:01 10° NE
Cosmos 923 Rocket 4.0 20:42:41 10° SSW 20:47:59 73° ESE 20:53:20 10° NNE
Terra 2.1 20:47:56 23° SE 20:50:41 53° ENE 20:55:20 10° N
ATLAS 3B R/B 3.6 20:44:05 10° NW 20:50:47 45° WSW 20:56:42 14° S
SPOT 5 2.6 20:50:48 24° SSE 20:53:21 76° ENE 20:57:45 10° N
USA 267 4.0 20:48:37 10° ENE 20:54:10 29° SE 20:59:01 13° S
Cosmos 1092 Rocket 4.2 20:50:14 10° SSW 20:56:29 73° W 21:02:49 10° N
Cosmos 2082 Rocket 3.9 20:51:38 10° WSW 20:56:45 35° NW 21:01:56 10° NNE
Cosmos 2056 Rocket 3.8 20:53:55 10° NNW 20:59:14 59° ENE 21:02:09 26° SE
NOSS 2-1 (C) 3.6 21:00:50 32° ESE 21:00:50 32° ESE 21:03:26 10° NE
BREEZE-M DEB (TANK) 2.1 21:00:36 10° W 21:02:46 54° N 21:03:12 39° NE
ERS-1 Rocket 2.9 21:00:35 23° SSE 21:03:46 86° WSW 21:08:50 10° NNW
SL-27 R/B 3.2 21:06:23 33° ESE 21:06:32 34° ESE 21:09:50 10° NE
Meteor 2-21 4.5 21:02:38 20° S 21:06:59 65° E 21:13:05 10° NNE
Cosmos 2360 Rocket 2.4 21:01:27 10° NNW 21:07:03 61° ENE 21:10:08 27° SE
NOSS 2-1 (D) 3.2 21:08:18 40° ESE 21:08:18 40° ESE 21:11:14 10° NE
Cosmos 2026 Rocket 4.2 21:03:08 10° SSW 21:09:27 72° W 21:15:45 10° N
GP-B 3.8 21:08:25 10° N 21:12:46 53° W 21:16:13 15° SSW
ISS -2.0 21:13:09 10° W 21:15:44 20° SW 21:15:56 20° SW
Cosmos 2333 Rocket 3.1 21:12:13 10° NNW 21:17:32 39° NE 21:20:38 22° ESE
Spot 2 Rocket 4.3 21:14:48 17° SSW 21:18:29 46° W 21:23:24 10° NNW
Meteor 1-10 Rocket 4.2 21:14:41 10° N 21:20:14 66° ENE 21:22:51 31° SSE
Cosmos 1371 Rocket 4.0 21:15:21 10° NNW 21:20:46 86° WSW 21:23:22 32° SSE
Cosmos 1812 2.7 21:17:53 10° NNW 21:21:45 80° W 21:23:04 40° S
Cosmos 2112 Rocket 4.0 21:17:49 13° SSW 21:22:37 89° WNW 21:27:56 10° NNE
Cosmos 1680 Rocket 3.6 21:17:51 10° SSW 21:23:08 77° WNW 21:28:26 10° NNE
Cosmos 1500 Rocket 4.3 21:22:34 33° ESE 21:23:23 35° E 21:27:26 10° NNE
Cosmos 220 Rocket 4.1 21:19:50 10° NNW 21:24:10 68° WSW 21:25:50 36° S
Cosmos 2322 4.4 21:22:26 10° NNW 21:27:55 44° NE 21:30:49 25° ESE
Okean 3 Rocket 4.0 21:24:58 20° SSW 21:28:01 63° WNW 21:32:31 10° N
USA 234 3.9 21:22:56 10° E 21:29:15 53° NNE 21:35:35 10° NW
Cosmos 292 Rocket 3.8 21:27:14 10° NNW 21:32:00 67° ENE 21:33:40 39° SE
Cosmos 2237 Rocket 4.3 21:33:47 10° N 21:37:47 19° NE 21:41:46 10° E
Meteor 2-16 Rocket 4.4 21:35:24 30° S 21:38:30 72° E 21:44:35 10° NNE
Cosmos 2322 Rocket 2.7 21:33:44 10° NW 21:39:10 49° WSW 21:41:46 28° SSW
Cosmos 1408 Rocket 3.5 21:40:12 38° SSW 21:41:51 83° W 21:46:13 10° N
Cosmos 1743 Rocket 3.7 21:42:22 46° SE 21:43:13 55° E 21:47:35 10° NNE
Cosmos 2285 Rocket 4.5 21:38:38 10° NNW 21:44:46 51° ENE 21:47:42 29° ESE
Cosmos 2315 Rocket 4.2 21:43:25 10° N 21:49:41 61° ENE 21:52:16 36° SE
Sich 1 4.0 21:51:50 31° E 21:51:57 31° E 21:55:47 10° NNE
Cosmos 2084 3.5 21:48:52 16° SW 21:52:06 71° NW 21:56:18 10° NE
Gbstr 26 Del rocket 4.1 21:52:37 10° W 21:55:26 26° SW 21:55:26 26° SW
Cosmos 2266 Rocket 3.9 21:53:29 33° S 21:56:24 85° E 22:02:41 10° N
Cosmos 1862 4.3 21:57:03 27° SW 21:58:44 43° WNW 22:02:33 10° N
Cosmos 2219 Rocket 2.3 21:55:23 10° NNW 22:00:59 65° ENE 22:02:58 39° SE
Cosmos 2228 Rocket 3.0 22:00:58 10° N 22:05:24 74° E 22:06:05 60° SE
Cosmos 1515 Rocket 4.3 22:01:13 10° NNW 22:05:28 45° W 22:06:43 35° SW
H-2A R/B 3.9 22:01:39 10° N 22:05:46 58° WNW 22:07:14 36° SW
NOSS 2-1 (E) 3.5 22:05:22 40° W 22:06:13 54° NW 22:09:39 10° NNE
SL-16 R/B 3.9 22:02:55 10° NW 22:07:20 24° WSW 22:09:55 17° SW
NOSS 3-1 (C) 4.0 22:02:47 10° NW 22:10:15 85° SW 22:14:30 34° SSE
Cosmos 2333 4.1 22:04:56 10° NNW 22:10:33 79° WSW 22:12:13 47° SSE
COSMOS 2455 2.8 22:09:10 41° S 22:11:06 62° ESE 22:17:03 10° NE
Cosmos 1420 Rocket 4.4 22:07:00 10° NNW 22:12:11 53° WSW 22:13:43 40° SSW
Cosmos 883 Rocket 4.5 22:08:16 10° N 22:14:30 78° W 22:16:57 40° S
COSMOS 2428 2.8 22:10:01 10° NNW 22:15:44 69° ENE 22:17:35 43° SE
Cosmos 1655 Rocket 4.3 22:12:44 27° SSW 22:16:22 64° WNW 22:22:45 10° N
Cosmos 1515 4.1 22:17:16 10° N 22:20:48 51° ENE 22:20:48 51° ENE
Spot 4 3.8 22:21:45 59° SSE 22:22:40 83° ENE 22:27:31 10° NNW
USA 229 DEB 3.9 22:17:09 10° NW 22:24:28 80° NE 22:28:16 34° SE
USA 229 3.9 22:17:15 10° NW 22:24:34 80° NE 22:28:23 33° SE
ATLAS 5 CENTAUR R/B 2.6 22:22:27 10° NW 22:27:52 63° NE 22:30:39 33° ESE
Terra 3.7 22:26:49 16° WSW 22:28:45 20° W 22:32:16 10° NW
COSMOS 2487 3.0 22:31:49 54° N 22:31:49 54° N 22:34:33 10° NNE
Cosmos 1452 Rocket 3.5 22:26:32 10° NNW 22:31:46 70° WSW 22:32:49 54° SSW
Cosmos 1707 Rocket 3.6 22:27:41 10° N 22:32:01 63° ENE 22:32:18 61° E
ALOS 2 2.7 22:33:57 59° ESE 22:34:22 63° ENE 22:38:43 10° N
USA 267 3.2 22:31:09 10° NE 22:37:44 88° SE 22:44:19 10° SW
Meteor 1-27 Rocket 4.4 22:37:07 10° NNW 22:42:27 44° W 22:44:14 34° SW
Cosmos 1666 4.4 22:44:25 23° ENE 22:44:25 23° ENE 22:46:52 10° NE
NOSS 3-1 (A) 4.0 22:37:27 10° NW 22:44:57 84° SW 22:48:49 37° SSE
SL-08 ROCKET BODY 4.5 22:44:13 49° SSE 22:45:43 64° E 22:51:48 10° NNE
Cosmos 1805 Rocket 4.0 22:49:13 47° WSW 22:49:55 53° WNW 22:54:17 10° N
Cosmos 2360 Rocket 3.7 22:46:14 10° NW 22:50:36 23° WSW 22:51:53 21° WSW
Nadezhda 2 Rocket 4.5 22:49:09 47° S 22:51:09 90° E 22:57:37 10° N
Meteor 1-20 Rocket 4.3 22:54:51 47° SW 22:56:26 71° WNW 23:02:08 10° N
Cosmos 1110 Rocket 3.9 22:52:30 10° NNW 22:57:51 79° WSW 22:58:40 63° S
Cosmos 1980 4.0 22:53:58 10° NNW 22:59:35 61° ENE 23:01:19 42° ESE
Cosmos 2333 Rocket 2.9 22:56:36 10° NW 23:01:48 38° WSW 23:02:38 36° SW
Cosmos 1331 Rocket 3.8 22:58:01 10° NNW 23:03:17 78° WSW 23:03:58 66° S
Cosmos 1244 Rocket 4.5 23:03:47 48° SSW 23:05:39 78° W 23:11:53 10° N
USA 234 3.2 23:10:02 45° SSE 23:12:09 70° SW 23:18:43 10° NW
Nimbus 7 Rocket 4.4 23:06:38 10° NNE 23:12:40 74° ESE 23:14:02 54° S
Cosmos 1340 Rocket 4.1 23:13:35 30° ENE 23:13:35 30° ENE 23:16:29 10° NNE
NOSS 0 Rocket 3.9 23:08:17 10° NNW 23:14:32 78° WSW 23:16:01 54° S
Cosmos 2297 Rocket 2.5 23:17:11 47° SE 23:17:41 48° ESE 23:23:06 10° NE
Okean 1-7 3.9 23:14:41 10° N 23:18:39 37° ENE 23:18:54 37° E
Lacrosse 5 2.6 23:21:59 39° ESE 23:21:59 39° ESE 23:25:52 10° ENE
Cosmos 2237 Rocket 2.1 23:17:01 10° NNW 23:22:45 84° ENE 23:24:02 56° SE
Cosmos 2084 Rocket 3.4 23:20:02 10° NW 23:24:07 80° NNE 23:24:07 80° NNE
Cosmos 2242 Rocket 4.2 23:20:34 10° N 23:24:49 44° ENE 23:25:08 43° E
NOSS 2-2 (E) 4.4 23:20:12 10° NW 23:25:32 82° NE 23:28:32 37° SE
Meteor 1-18 Rocket 4.4 23:20:02 10° NNW 23:25:48 61° W 23:26:57 51° SW
Cosmos 1500 3.8 23:26:57 52° NW 23:26:57 52° NW 23:30:23 10° N
Cosmos 1470 Rocket 3.4 23:29:03 84° NE 23:29:03 84° NE 23:33:17 10° N
Cosmos 2227 Rocket 2.6 23:28:53 44° ESE 23:29:23 45° ESE 23:34:44 10° NE
Cosmos 1633 Rocket 3.5 23:33:06 49° W 23:33:19 49° WNW 23:37:34 10° N
Cosmos 1933 Rocket 3.6 23:35:34 67° E 23:35:34 67° E 23:40:01 10° NNE
Cosmos 1666 Rocket 4.5 23:37:07 36° W 23:37:35 38° WNW 23:41:45 10° N
Meteor 1-11 Rocket 4.1 23:41:19 43° SE 23:42:19 48° E 23:47:36 10° NNE
Cosmos 2219 Rocket 3.7 23:40:16 10° NW 23:44:24 22° W 23:44:40 21° WSW
Cosmos 2263 Rocket 4.4 23:46:36 11° ESE 23:47:58 12° E 23:50:00 10° ENE
NOSS 2-2 (C) 4.3 23:44:27 10° NW 23:49:46 86° SW 23:52:23 40° SE
SL-16 R/B 2.8 23:44:29 10° NNW 23:50:03 53° ENE 23:52:42 29° ESE
Cosmos 1992 Rocket 4.3 23:45:29 10° NNW 23:50:41 62° ENE 23:52:06 45° ESE
Cosmos 1269 Rocket 3.9 23:50:05 63° SW 23:50:56 84° WNW 23:56:16 10° NNE
PSLV R/B 3.6 23:47:00 10° NNE 23:51:48 89° E 23:52:12 76° S
Resurs 1-4 Rocket 3.9 23:49:57 10° NE 23:53:41 19° E 23:55:13 17° ESE
